Regional Weather Roundup
Issued by NWS

Home | Current Version | Previous Version | Graphics & Text | Print | Product List | Glossary On
Versions: 1 2 3 4 5 6 7 8 9 10 11 12 13 14 15 16 17 18 19 20 21 22 23 24 25 26
000
ASUS45 KCYS 261410
RWRWY

WYOMING REGIONAL WEATHER ROUNDUP
NATIONAL WEATHER SERVICE CHEYENNE WY
800 AM MDT THU MAY 26 2016

NOTE:  "FAIR" INDICATES FEW OR NO CLOUDS BELOW 12,000 FEET
WITH NO SIGNIFICANT WEATHER AND/OR OBSTRUCTIONS TO VISIBILITY.

WYZ001-261500-
YELLOWSTONE NATIONAL PARK

CITY           SKY/WX    TMP DP  RH WIND       PRES   REMARKS
LK YELLOWSTONE   N/A     35  33  92 CALM      30.13R
W YELLOWSTONE  NOT AVBL

$$
WYZ002>013-054>058-071-098>099-261500-
NORTHERN WYOMING

CITY           SKY/WX    TMP DP  RH WIND       PRES   REMARKS
JACKSON        MOSUNNY   37  37 100 CALM      30.10S
CODY           PTSUNNY   48  43  81 CALM      29.99S
GREYBULL       CLOUDY    51  46  83 W3        29.98R
WORLAND        FAIR      49  45  86 SW6       29.99R
SHERIDAN       FAIR      55  41  59 E5        29.95S
BUFFALO          N/A    N/A N/A N/A MISG      29.98R
GILLETTE       CLOUDY    51  41  68 W13       29.96R
HULETT         FAIR      52  45  76 SW8       29.96R
NEWCASTLE      FAIR      52  37  58 NW6       29.97S

$$
WYZ014>020-022>026-101>103-261500-
CENTRAL WYOMING

CITY           SKY/WX    TMP DP  RH WIND       PRES   REMARKS
BIG PINEY      FAIR      41  35  79 SW7       30.08S
PINEDALE       FAIR      37  34  87 MISG      30.08F
DUBOIS         FAIR      45  32  61 NW10G16   30.06S
LANDER         FAIR      47  33  58 VRB5      30.01R
RIVERTON       FAIR      50  34  54 W3        30.02R
CASPER         FAIR      49  39  68 SW13      30.01R
DOUGLAS          N/A    N/A N/A N/A MISG      30.01R

$$
WYZ021-027>030-104>119-261500-
SOUTHERN WYOMING

CITY           SKY/WX    TMP DP  RH WIND       PRES   REMARKS
EVANSTON       FAIR      41  35  79 N6        30.09R
KEMMERER         N/A     41  34  75 CALM      30.10R
FORT BRIDGER   SUNNY     43  39  87 NW3       30.12R
ROCK SPRINGS   FAIR      41  37  86 W5        30.07S
DIXON          FAIR      44  32  62 NE6       30.08S
RAWLINS        FAIR      45  34  65 CALM      30.07R
SARATOGA       FAIR      43  32  65 CALM      30.08S
LARAMIE        FAIR      43  32  65 CALM      30.05F
CHEYENNE       FAIR      51  39  63 W3        30.02S
TORRINGTON     FAIR      56  39  53 W8        29.95S
PINE BLUFFS    FAIR      48  41  76 SW3       30.01S

$$




USA.gov is the U.S. government's official web portal to all federal, state and local government web resources and services.